Theta_e
361 347 343 343 340 336 336 339 339 334 323 323 323 323 323 323 323 324 325 325 329 329 330 328 325 325 328 329 330 329 327 325 323 325 329 330 336 335 331 340 342 343 345
358 350 346 345 342 336 333 338 338 337 323 324 323 324 323 324 325 326 328 330 330 329 326 324 324 326 327 329 327 323 326 327 329 341 341 343 343 337 330 335 337 339 339
359 357 350 349 343 337 332 335 338 338 325 324 324 324 324 325 327 327 330 328 325 324 323 323 324 326 328 327 324 334 332 336 338 344 346 343 343 343 334 335 338 338 336
358 357 352 350 345 337 331 333 338 339 330 324 324 324 325 325 326 328 327 324 323 323 323 323 325 327 326 323 334 337 338 341 345 348 348 348 347 340 337 337 338 338 337
360 356 352 351 345 335 331 332 338 339 334 325 325 325 326 326 325 325 325 323 322 322 323 324 327 326 321 333 338 339 337 342 347 348 348 344 341 338 337 338 337 331 328
360 360 355 350 343 333 330 331 339 340 335 326 325 326 327 326 326 327 326 323 322 322 324 326 325 321 327 336 338 337 334 342 347 349 347 342 340 339 339 335 331 327 318
359 359 357 349 341 333 330 334 338 340 337 328 328 328 328 327 327 325 323 322 322 323 326 326 321 323 334 337 337 336 339 346 349 348 346 343 339 339 334 329 322 314 310
357 359 357 351 340 334 330 333 338 340 339 331 332 333 331 328 328 324 323 322 322 325 327 322 322 328 335 336 336 337 340 342 348 347 344 343 339 336 330 325 316 311 311
358 358 356 352 340 333 329 329 336 339 340 333 334 335 333 329 327 326 324 322 324 326 324 321 326 332 336 333 334 337 344 346 347 346 345 339 338 332 326 319 311 311 311
356 358 355 351 340 334 329 327 332 338 340 337 336 336 334 329 327 326 325 322 325 326 322 325 331 334 332 343 339 344 346 347 347 345 340 337 335 328 324 314 311 311 310
352 356 355 349 340 338 329 326 329 338 339 338 337 336 333 329 328 326 324 323 325 325 323 329 332 332 340 346 346 344 346 346 346 343 339 336 332 327 319 312 312 311 310
350 357 356 350 347 339 339 326 330 336 337 337 337 336 332 330 329 327 326 327 326 323 326 331 332 342 347 348 347 345 347 344 343 342 340 337 329 325 317 312 312 311 310
347 354 357 352 350 342 340 339 326 333 336 336 335 332 331 340 339 338 336 330 326 323 328 343 346 349 346 344 347 347 344 343 341 341 339 334 327 322 315 313 312 311 310
335 350 356 354 352 346 341 341 330 324 327 328 326 328 330 342 342 339 339 329 326 331 345 344 349 347 343 336 344 344 344 342 342 341 338 330 325 322 316 314 313 311 310
344 348 355 353 352 350 343 342 338 337 331 329 333 327 334 344 341 335 340 337 336 340 343 344 347 345 344 343 345 343 343 341 341 339 336 333 329 325 321 319 316 311 310
331 340 346 354 353 351 346 344 340 339 337 338 340 336 335 341 340 333 340 337 336 340 341 344 347 345 345 346 344 343 342 341 339 337 334 333 328 326 323 322 319 315 313
328 334 351 341 349 352 346 347 342 339 338 338 339 340 335 339 340 338 339 336 339 342 343 344 348 344 338 344 343 344 342 339 338 336 334 331 329 326 324 323 320 320 318
324 329 335 344 346 352 347 349 342 342 341 339 341 342 339 335 339 337 337 337 342 343 343 344 344 344 346 343 344 343 340 338 337 335 333 329 327 323 324 325 320 321 319
322 324 329 339 349 348 350 348 345 344 344 343 343 343 342 334 335 333 338 342 343 343 345 345 343 344 343 343 343 341 339 338 336 333 332 327 326 322 325 325 323 321 320
321 322 324 330 342 348 347 349 347 345 345 344 343 343 341 332 327 330 341 344 344 343 346 345 342 345 342 344 345 342 337 337 335 333 331 327 326 325 325 324 323 321 320
320 322 325 324 339 346 346 349 348 347 346 346 344 341 339 332 325 326 344 344 343 342 343 343 344 343 344 346 342 337 331 331 333 332 330 327 326 324 324 324 323 321 319
320 320 323 323 329 344 347 347 349 345 348 346 345 342 340 331 325 324 340 343 342 344 345 345 343 340 344 344 337 335 335 334 333 326 327 326 325 323 324 324 323 322 320
321 320 322 321 327 337 345 346 349 349 347 347 345 342 341 333 327 324 338 346 340 345 345 342 342 343 345 341 335 337 335 334 334 332 327 324 324 324 324 322 323 321 319
319 320 322 320 325 336 345 345 348 348 349 346 345 343 341 332 331 324 335 345 343 346 348 345 339 343 343 338 332 335 335 331 326 331 330 328 327 326 326 323 323 319 318
321 320 323 322 325 341 340 342 347 347 348 347 346 342 341 332 328 325 332 344 345 344 346 346 341 342 341 336 334 332 331 327 325 317 323 328 328 326 324 323 321 319 318
321 320 325 323 326 339 340 342 348 346 348 349 346 342 340 332 340 335 339 341 344 345 344 345 341 343 338 334 335 333 328 325 324 325 325 322 322 326 324 322 320 319 317
Wind_Speed
2 15 17 18 18 20 18 18 15 13 16 19 19 19 18 17 16 15 12 11 9 8 7 6 7 7 6 6 7 8 8 9 10 13 11 7 8 11 14 9 6 8 11
7 14 18 17 18 19 19 18 16 13 15 18 19 19 17 16 15 13 11 9 8 7 6 5 6 6 6 7 8 10 10 11 13 14 10 8 6 10 13 10 7 9 10
7 9 19 18 18 18 18 19 18 14 15 18 19 18 16 16 14 10 9 8 7 5 5 5 5 5 5 7 8 10 11 11 10 9 12 8 4 11 9 9 10 10 11
8 6 22 20 19 18 18 19 19 16 16 18 19 18 16 15 12 10 8 7 6 5 4 4 4 4 5 7 9 11 12 10 13 12 11 8 8 9 9 10 12 12 14
8 8 19 22 21 19 19 19 20 18 17 18 18 18 15 13 11 9 8 7 6 4 3 3 3 4 6 8 9 10 11 10 5 9 12 6 11 9 10 11 12 13 16
14 12 4 22 21 19 19 20 22 20 19 19 19 17 15 13 11 9 8 7 5 4 3 2 3 4 6 8 9 10 11 9 7 14 5 8 13 11 12 12 15 18 20
16 15 9 14 22 20 18 20 20 20 19 19 18 16 14 12 10 9 8 7 5 4 2 1 3 5 6 8 9 10 13 8 13 7 4 9 11 11 11 15 19 19 18
11 15 10 7 23 20 18 19 21 21 20 20 18 16 14 12 11 10 8 6 5 4 2 1 3 5 6 8 9 11 9 5 6 2 5 8 10 11 14 18 18 18 18
9 11 9 10 25 21 19 19 20 22 21 20 19 17 15 14 11 10 8 7 5 4 2 0 3 5 7 10 12 11 7 7 8 2 7 11 10 12 15 17 16 17 19
11 9 12 11 26 24 22 20 21 21 22 21 19 17 16 14 12 10 9 7 6 4 2 1 3 5 8 12 14 10 4 5 5 3 8 14 11 14 16 17 17 18 19
14 16 13 12 24 25 23 24 22 22 23 21 19 18 17 15 13 11 10 9 7 4 3 1 3 5 6 7 12 10 4 7 10 5 9 13 11 13 16 16 17 19 19
8 19 18 14 21 23 20 25 27 27 26 25 23 21 18 15 13 11 11 8 8 5 3 2 5 4 5 6 5 10 4 9 7 6 10 13 10 13 14 16 18 19 19
13 16 20 26 23 23 24 22 27 27 28 26 25 23 20 14 10 13 13 9 9 6 4 5 3 3 6 6 4 5 4 1 5 7 10 13 12 14 15 16 18 19 19
20 14 21 21 23 23 27 23 24 25 27 28 26 23 22 20 17 18 9 9 10 7 2 2 4 7 1 1 3 2 3 4 7 11 11 9 14 16 16 16 20 19 19
9 8 2 15 25 22 26 25 21 23 25 24 23 24 26 21 22 18 17 8 4 7 6 7 7 2 2 1 3 5 7 1 11 10 10 13 15 16 17 17 20 19 20
5 13 15 16 23 29 25 25 24 26 24 20 24 24 27 25 22 21 17 19 12 11 11 8 12 5 6 6 5 8 4 4 1 9 9 11 13 14 18 18 21 19 19
13 14 18 18 27 28 31 27 28 30 28 26 26 24 29 24 22 21 22 23 16 14 12 11 8 5 6 6 8 6 3 3 5 2 8 11 9 10 15 18 21 21 24
13 18 14 20 21 29 37 27 32 30 28 30 28 27 25 27 24 25 21 18 16 15 15 12 8 5 7 8 6 4 4 4 7 2 6 4 9 10 13 15 19 20 25
21 19 20 20 23 25 41 34 35 33 33 34 32 33 29 30 27 27 21 17 17 16 11 13 9 9 8 8 4 2 4 4 5 5 8 7 5 7 10 14 14 17 23
22 24 27 25 28 28 31 44 42 40 41 41 40 38 31 30 29 28 21 20 20 20 18 17 12 11 8 6 3 11 5 8 7 8 8 2 6 8 7 15 8 13 12
22 24 22 26 26 32 31 42 46 39 39 35 38 37 32 32 29 31 21 23 23 21 14 15 16 15 8 9 10 9 3 3 12 9 8 3 7 2 9 11 15 17 17
23 25 28 31 33 32 36 37 47 43 42 41 37 38 34 34 32 29 27 24 26 19 19 21 19 11 10 12 10 7 7 9 8 5 8 7 5 7 2 8 12 15 16
22 30 32 34 36 35 39 38 41 44 34 39 40 38 36 34 34 29 27 23 18 23 21 20 16 14 10 10 13 8 4 3 10 9 5 4 6 1 8 6 9 14 15
28 30 34 33 35 36 38 40 42 47 43 46 42 42 38 37 34 30 32 22 18 21 20 15 13 16 13 9 8 13 8 2 0 5 8 6 7 1 3 6 5 8 14
27 29 34 27 33 35 39 44 41 45 48 38 43 42 37 38 34 30 31 27 22 24 16 16 14 15 13 10 7 5 4 3 3 4 2 5 4 5 4 3 10 7 11
23 25 30 29 30 34 36 40 42 46 53 47 35 38 36 39 34 28 28 31 24 20 19 20 14 13 13 15 12 11 7 4 9 2 3 1 4 12 7 7 4 8 8
Wind_Direction
209 165 165 164 158 153 155 154 153 149 154 149 146 144 144 144 141 137 136 135 128 124 115 104 97 91 78 58 41 28 19 14 17 31 37 29 8 3 354 356 7 335 333
191 175 168 170 167 160 157 164 157 157 161 158 151 148 148 147 145 141 139 135 129 125 116 102 91 78 56 38 27 25 26 32 48 59 38 17 332 2 1 351 354 338 338
185 190 177 177 175 167 166 166 164 165 167 167 157 152 154 152 151 151 146 139 135 128 112 95 84 68 46 32 35 41 48 53 58 45 25 81 66 15 2 360 1 349 340
194 210 192 182 180 176 171 173 170 170 171 174 163 159 160 158 159 159 155 149 140 132 114 94 77 55 38 41 42 48 51 51 67 41 35 100 20 12 17 10 14 4 345
201 224 205 188 184 182 177 179 176 175 176 176 170 166 165 165 162 165 164 158 148 139 113 93 58 39 47 46 43 45 48 45 54 46 92 3 351 14 22 10 355 352 343
194 206 252 196 189 186 185 181 185 182 180 178 177 171 172 172 171 174 174 165 156 147 127 86 39 38 50 44 38 37 43 23 13 101 102 2 359 19 15 6 357 347 348
182 202 200 202 192 189 188 186 188 187 185 183 183 177 177 179 181 182 182 175 163 159 137 71 37 50 43 36 34 42 55 31 73 121 1 6 9 14 14 3 354 358 2
183 197 194 222 195 190 190 194 190 192 190 189 189 183 183 187 188 188 190 187 172 162 161 42 57 60 43 33 44 51 49 15 76 143 342 8 19 16 10 2 2 6 3
198 211 211 223 193 191 192 195 195 198 194 195 192 191 190 193 193 196 196 196 182 176 196 13 63 56 42 34 49 64 63 56 108 74 10 1 15 11 10 6 11 10 7
179 203 240 236 192 192 191 195 194 201 199 198 199 198 197 197 197 203 201 201 195 195 204 141 73 52 61 63 62 83 93 90 122 339 10 3 4 10 8 11 13 11 9
198 195 220 201 194 196 197 193 194 198 202 202 204 206 202 201 203 206 206 198 208 206 187 141 56 68 96 67 82 78 359 111 159 322 6 352 353 9 7 11 12 12 8
217 182 189 195 198 191 200 202 194 196 202 204 208 209 201 204 211 215 213 203 210 204 175 87 89 115 46 11 59 57 71 147 201 328 346 341 354 10 4 12 11 8 10
201 195 201 188 196 180 190 206 200 200 202 205 211 207 193 184 224 209 223 218 210 198 171 101 86 63 40 15 331 46 77 259 272 325 342 335 3 4 8 11 6 7 8
236 211 205 181 196 183 194 210 205 202 205 206 207 201 189 179 214 214 232 217 206 154 191 293 232 152 262 212 297 191 108 28 334 329 341 354 7 6 11 6 6 5 7
244 226 249 200 199 199 202 208 205 199 199 204 206 200 185 192 210 198 211 231 197 177 181 204 235 248 190 154 200 205 218 260 322 324 337 348 356 3 4 3 2 5 9
273 256 243 215 207 194 192 208 202 199 199 193 204 213 191 204 210 191 196 198 213 192 206 200 206 204 158 185 214 249 237 139 78 341 340 350 352 358 355 357 360 6 7
264 246 232 250 231 210 192 215 202 201 201 196 205 217 195 202 209 200 203 197 203 194 193 211 211 207 224 236 274 276 193 204 241 208 343 345 353 353 351 346 357 2 1
238 236 247 252 243 226 200 207 198 202 202 199 204 211 207 195 204 203 201 190 201 203 207 208 220 213 205 257 263 229 193 234 255 192 209 325 352 353 344 342 354 360 354
249 236 237 249 242 233 210 203 201 198 199 199 200 210 209 196 203 200 188 198 199 198 193 207 195 223 230 244 244 222 185 231 292 214 243 308 326 340 339 317 356 359 358
247 241 232 232 247 241 230 216 205 202 202 202 201 209 209 201 202 190 181 208 204 195 206 209 188 213 218 237 222 175 211 197 241 243 284 23 315 346 284 321 352 341 345
246 242 225 238 233 244 238 222 212 207 207 205 203 208 206 201 200 190 185 206 211 205 205 192 205 212 201 198 206 249 294 250 223 199 272 205 239 338 328 315 326 352 347
248 241 239 239 237 240 243 236 220 213 208 197 200 206 205 195 197 193 189 214 213 188 204 202 213 214 198 219 190 224 219 229 244 197 204 252 294 337 260 326 334 344 339
257 246 234 246 242 233 243 244 231 220 214 193 196 206 204 192 193 197 184 209 211 191 209 219 221 196 200 234 193 181 245 86 205 224 232 222 256 276 270 333 313 342 335
259 262 237 245 242 238 236 243 236 226 213 202 203 200 205 188 191 196 187 197 206 196 212 221 230 203 188 226 221 201 220 230 335 172 234 266 296 322 347 19 316 355 337
264 255 236 239 237 239 236 242 238 234 222 208 205 190 205 188 189 194 188 194 200 200 213 213 216 205 195 193 225 199 217 246 290 222 252 243 267 167 122 319 341 332 342
276 252 235 232 241 236 241 242 237 234 225 223 204 192 195 183 183 189 187 199 202 207 206 215 214 206 192 189 194 197 189 197 234 219 265 6 16 183 276 338 336 316 348